Powrót do katalogu

HOKUSHIN1

AktywnyNaukaVLEO
NORAD 69648·PAYLOAD·🇷🇺 Russia

Wystrzelony Nov 20, 1998 z Baikonur Cosmodrome

Loading…

Następne Przeloty (najbliższe 24 godziny)

TLE

ŚwieżeSource: Space-Track

Epoka: Sep 14, 2026, 06:07 UTC

1 69648U 98067YH  26257.25502177  .00023311  00000-0  36262-3 0  9996
2 69648  51.6308 217.5898 0005813 162.2874 197.8320 15.53786779 13489

Śledź HOKUSHIN1 w czasie rzeczywistym z AllMySat

Download on the App Store